START_TIME,STEP,MOV.,H8,t_acc.,H43,t_acc.,M25,t_acc.,H9,t_acc.
1979-08-03 18:00:28.220 ,0,1,0.,12.0,0.,12.0,0.,12.0,0.,12.0
1979-08-03 18:00:40.220 ,0,1,0.,12.0,0.,12.0,0.,12.0,0.,12.0
1979-08-03 18:00:52.220 ,4,1,0.,12.0,0.,12.0,0.,12.0,0.,12.0
1979-08-03 18:01:04.220 ,4,1,0.,12.0,0.,12.0,0.,12.0,0.,12.0
1979-08-03 18:01:16.220 ,7,1,0.,12.0,0.,12.0,0.,12.0,0.,12.0
1979-08-03 18:01:28.220 ,7,1,0.,12.0,0.,12.0,0.,12.0,0.,12.0
1979-08-03 18:01:40.220 ,3,1,0.,12.0,0.,12.0,0.,12.0,0.,12.0
1979-08-03 18:01:52.220 ,3,1,0.,12.0,0.,12.0,0.,12.0,0.,12.0
1979-08-03 18:02:04.220 ,0,1,0.,12.0,0.,12.0,0.,12.0,0.,12.0
1979-08-03 18:02:16.220 ,0,1,0.,12.0,0.,12.0,0.,12.0,0.,12.0
1979-08-03 18:02:28.220 ,4,1,0.,12.0,0.,12.0,0.,12.0,0.,12.0
1979-08-03 18:02:40.220 ,4,1,0.,12.0,0.,12.0,0.,12.0,0.,12.0
1979-08-03 18:02:52.220 ,7,1,0.,12.0,0.,12.0,0.,12.0,0.,12.0
1979-08-03 18:03:04.220 ,7,1,0.,12.0,0.,12.0,0.,12.0,0.,12.0
1979-08-03 18:03:16.220 ,3,1,0.,12.0,0.,12.0,0.,12.0,0.,12.0
1979-08-03 18:03:28.220 ,3,1,0.,12.0,0.,12.0,0.,12.0,0.,12.0
1979-08-03 18:03:40.220 ,0,1,0.,12.0,0.,12.0,0.,12.0,0.,12.0
1979-08-03 18:03:52.220 ,0,1,0.,12.0,0.,12.0,0.,12.0,0.,12.0
1979-08-03 18:04:04.220 ,4,1,0.,12.0,0.,12.0,0.,12.0,0.,12.0
1979-08-03 18:04:16.220 ,4,1,0.,12.0,0.,12.0,0.,12.0,0.,12.0
1979-08-03 18:04:28.220 ,7,1,0.,12.0,0.,12.0,0.,12.0,0.,12.0
1979-08-03 18:04:40.220 ,7,1,0.,12.0,0.,12.0,0.,12.0,0.,12.0
1979-08-03 18:04:52.220 ,3,1,0.,12.0,0.,12.0,0.,12.0,0.,12.0
1979-08-03 18:05:04.220 ,3,1,0.,12.0,0.,12.0,0.,12.0,0.,12.0
1979-08-03 18:05:16.220 ,0,1,0.,12.0,0.,12.0,0.,12.0,0.,12.0
1979-08-03 18:05:28.220 ,0,1,0.,12.0,0.,12.0,0.,12.0,0.,12.0
1979-08-03 18:05:40.220 ,0,0,0.,12.0,0.,12.0,0.,12.0,0.,12.0
1979-08-03 18:05:52.220 ,0,0,0.,12.0,0.,12.0,0.,12.0,0.,12.0
1979-08-03 18:06:04.220 ,0,0,0.,12.0,0.,12.0,0.,12.0,0.,12.0
1979-08-03 18:06:16.220 ,0,0,0.,12.0,0.,12.0,0.,12.0,0.,12.0
1979-08-03 18:06:28.220 ,5,0,0.,12.0,0.,12.0,0.,12.0,0.,12.0
1979-08-03 18:06:40.220 ,5,0,0.,12.0,0.,12.0,0.,12.0,0.,12.0
1979-08-03 18:06:52.220 ,5,0,0.,12.0,0.,12.0,0.,12.0,0.,12.0
1979-08-03 18:07:04.220 ,5,0,0.,12.0,0.,12.0,0.,12.0,0.,12.0
1979-08-03 18:07:16.220 ,4,0,0.,12.0,0.,12.0,0.,12.0,0.,12.0
1979-08-03 18:07:28.220 ,4,0,0.,12.0,0.,12.0,0.,12.0,0.,12.0
1979-08-03 18:07:40.220 ,4,0,0.,12.0,0.,12.0,0.,12.0,0.,12.0
1979-08-03 18:07:52.220 ,4,0,0.,12.0,0.,12.0,0.,12.0,0.,12.0
1979-08-03 18:08:04.220 ,3,0,0.,12.0,0.,12.0,0.,12.0,0.,12.0
1979-08-03 18:08:16.220 ,3,0,0.,12.0,0.,12.0,0.,12.0,0.,12.0
1979-08-03 18:08:28.220 ,3,0,0.,12.0,0.,12.0,0.,12.0,0.,12.0
1979-08-03 18:08:40.220 ,3,0,0.,12.0,0.,12.0,0.,12.0,0.,12.0
1979-08-03 18:08:52.220 ,2,0,0.,12.0,0.,12.0,0.,12.0,0.,12.0
1979-08-03 18:09:04.220 ,2,0,0.,12.0,0.,12.0,0.,12.0,0.,12.0
1979-08-03 18:09:16.220 ,2,0,0.,12.0,0.,12.0,0.,12.0,0.,12.0
1979-08-03 18:09:28.220 ,2,0,0.,12.0,0.,12.0,0.,12.0,0.,12.0
1979-08-03 18:09:40.220 ,1,0,0.,12.0,0.,12.0,0.,12.0,0.,12.0
1979-08-03 18:09:52.220 ,1,0,0.,12.0,0.,12.0,0.,12.0,0.,12.0
1979-08-03 18:10:04.220 ,1,0,0.,12.0,0.,12.0,0.,12.0,0.,12.0
1979-08-03 18:10:16.220 ,1,0,0.,12.0,0.,12.0,0.,12.0,0.,12.0
1979-08-03 18:10:28.220 ,0,0,0.,12.0,0.,12.0,0.,12.0,0.,12.0
1979-08-03 18:10:40.220 ,0,0,0.,12.0,0.,12.0,0.,12.0,0.,12.0
1979-08-03 18:10:52.220 ,0,0,0.,12.0,0.,12.0,0.,12.0,0.,12.0
1979-08-03 18:11:04.220 ,0,0,0.,12.0,0.,12.0,0.,12.0,0.,12.0
1979-08-03 18:11:16.220 ,0,0,0.,12.0,0.,12.0,0.,12.0,0.,12.0
1979-08-03 18:11:28.220 ,0,0,0.,12.0,0.,12.0,0.,12.0,0.,12.0
1979-08-03 18:11:40.220 ,0,0,0.,12.0,0.,12.0,0.,12.0,0.,12.0
1979-08-03 18:11:52.220 ,0,0,0.,12.0,0.,12.0,0.,12.0,0.,12.0
1979-08-03 18:12:04.220 ,1,0,0.,12.0,0.,12.0,0.,12.0,0.,12.0
1979-08-03 18:12:16.220 ,1,0,0.,12.0,0.,12.0,0.,12.0,0.,12.0
1979-08-03 18:12:28.220 ,1,0,0.,12.0,0.,12.0,0.,12.0,0.,12.0
1979-08-03 18:12:40.220 ,1,0,0.,12.0,0.,12.0,0.,12.0,0.,12.0
1979-08-03 18:12:52.220 ,2,0,0.,12.0,0.,12.0,0.,12.0,0.,12.0
1979-08-03 18:13:04.220 ,2,0,0.,12.0,0.,12.0,0.,12.0,0.,12.0
1979-08-03 18:13:16.220 ,2,0,0.,12.0,0.,12.0,0.,12.0,0.,12.0
1979-08-03 18:13:28.220 ,2,0,0.,12.0,0.,12.0,0.,12.0,0.,12.0
1979-08-03 18:13:40.220 ,3,0,0.,12.0,0.,12.0,0.,12.0,0.,12.0
1979-08-03 18:13:52.220 ,3,0,0.,12.0,0.,12.0,0.,12.0,0.,12.0
1979-08-03 18:14:04.220 ,3,0,0.,12.0,0.,12.0,0.,12.0,0.,12.0
1979-08-03 18:14:16.220 ,3,0,0.,12.0,0.,12.0,0.,12.0,0.,12.0
1979-08-03 18:14:28.220 ,4,0,0.,12.0,0.,12.0,0.,12.0,0.,12.0
1979-08-03 18:14:40.220 ,4,0,0.,12.0,0.,12.0,0.,12.0,0.,12.0
1979-08-03 18:14:52.220 ,4,0,0.,12.0,0.,12.0,0.,12.0,0.,12.0
1979-08-03 18:15:04.220 ,4,0,0.,12.0,0.,12.0,0.,12.0,0.,12.0
1979-08-03 18:15:16.220 ,5,0,0.,12.0,0.,12.0,0.,12.0,0.,12.0
1979-08-03 18:15:28.220 ,5,0,0.,12.0,0.,12.0,0.,12.0,0.,12.0
1979-08-03 18:15:40.220 ,5,0,0.,12.0,0.,12.0,0.,12.0,0.,12.0
1979-08-03 18:15:52.220 ,5,0,0.,12.0,0.,12.0,0.,12.0,0.,12.0
1979-08-03 18:16:04.220 ,6,0,0.,12.0,0.,12.0,0.,12.0,0.,12.0
1979-08-03 18:16:16.220 ,6,0,0.,12.0,0.,12.0,0.,12.0,0.,12.0
1979-08-03 18:16:28.220 ,6,0,0.,12.0,0.,12.0,0.,12.0,0.,12.0
1979-08-03 18:16:40.220 ,6,0,0.,12.0,0.,12.0,0.,12.0,0.,12.0
1979-08-03 18:16:52.220 ,7,0,0.,12.0,0.,12.0,0.,12.0,0.,12.0
1979-08-03 18:17:04.220 ,7,0,0.,12.0,0.,12.0,0.,12.0,0.,12.0
1979-08-03 18:17:16.220 ,7,0,0.,12.0,0.,12.0,0.,12.0,0.,12.0
1979-08-03 18:17:28.220 ,7,0,0.,12.0,0.,12.0,0.,12.0,0.,12.0
1979-08-03 18:17:40.220 ,7,0,0.,12.0,0.,12.0,0.,12.0,0.,12.0
1979-08-03 18:17:52.220 ,7,0,0.,12.0,0.,12.0,0.,12.0,0.,12.0
1979-08-03 18:18:04.220 ,7,0,0.,12.0,0.,12.0,0.,12.0,0.,12.0
1979-08-03 18:18:16.220 ,7,0,0.,12.0,0.,12.0,0.,12.0,0.,12.0
1979-08-03 18:18:28.220 ,6,0,0.,12.0,0.,12.0,0.,12.0,0.,12.0
1979-08-03 18:18:40.220 ,6,0,0.,12.0,0.,12.0,0.,12.0,0.,12.0
1979-08-03 18:18:52.220 ,6,0,0.,12.0,0.,12.0,0.,12.0,0.,12.0
1979-08-03 18:19:04.220 ,6,0,0.,12.0,0.,12.0,0.,12.0,0.,12.0
1979-08-03 18:19:16.220 ,5,0,0.,12.0,0.,12.0,0.,12.0,0.,12.0
1979-08-03 18:19:28.220 ,5,0,0.,12.0,0.,12.0,0.,12.0,0.,12.0
1979-08-03 18:19:40.220 ,5,0,0.,12.0,0.,12.0,0.,12.0,0.,12.0
1979-08-03 18:19:52.220 ,5,0,0.,12.0,0.,12.0,0.,12.0,0.,12.0
1979-08-03 18:20:04.220 ,4,0,0.,12.0,0.,12.0,0.,12.0,0.,12.0
1979-08-03 18:20:16.220 ,4,0,0.,12.0,0.,12.0,0.,12.0,0.,12.0
1979-08-03 18:20:28.220 ,4,0,0.,12.0,0.,12.0,0.,12.0,0.,12.0
1979-08-03 18:20:40.220 ,4,0,0.,12.0,0.,12.0,0.,12.0,0.,12.0
1979-08-03 18:20:52.220 ,3,0,0.,12.0,0.,12.0,0.,12.0,0.,12.0
1979-08-03 18:21:04.220 ,3,0,0.,12.0,0.,12.0,0.,12.0,0.,12.0
1979-08-03 18:21:16.220 ,3,0,0.,12.0,0.,12.0,0.,12.0,0.,12.0
1979-08-03 18:21:28.220 ,3,0,0.,12.0,0.,12.0,0.,12.0,0.,12.0
1979-08-03 18:21:40.220 ,2,0,0.,12.0,0.,12.0,0.,12.0,0.,12.0
1979-08-03 18:21:52.220 ,2,0,0.,12.0,0.,12.0,0.,12.0,0.,12.0
1979-08-03 18:22:04.220 ,2,0,0.,12.0,0.,12.0,0.,12.0,0.,12.0
1979-08-03 18:22:16.220 ,2,0,0.,12.0,0.,12.0,0.,12.0,0.,12.0
1979-08-03 18:22:28.220 ,1,0,0.,12.0,0.,12.0,0.,12.0,0.,12.0
1979-08-03 18:22:40.220 ,1,0,0.,12.0,0.,12.0,0.,12.0,0.,12.0
1979-08-03 18:22:52.220 ,1,0,0.,12.0,0.,12.0,0.,12.0,0.,12.0
1979-08-03 18:23:04.220 ,1,0,0.,12.0,0.,12.0,0.,12.0,0.,12.0
1979-08-03 18:23:16.220 ,0,0,0.,12.0,0.,12.0,0.,12.0,0.,12.0
1979-08-03 18:23:28.220 ,0,0,0.,12.0,0.,12.0,0.,12.0,0.,12.0
1979-08-03 18:23:40.220 ,0,0,0.,12.0,0.,12.0,0.,12.0,0.,12.0
1979-08-03 18:23:52.220 ,0,0,0.,12.0,0.,12.0,0.,12.0,0.,12.0
1979-08-03 18:24:04.220 ,0,0,0.,12.0,0.,12.0,0.,12.0,0.,12.0
1979-08-03 18:24:16.220 ,0,0,0.,12.0,0.,12.0,0.,12.0,0.,12.0
1979-08-03 18:24:28.220 ,0,0,0.,12.0,0.,12.0,0.,12.0,0.,12.0
1979-08-03 18:24:40.220 ,0,0,0.,12.0,0.,12.0,0.,12.0,0.,12.0
1979-08-03 18:24:52.220 ,1,0,0.,12.0,0.,12.0,0.,12.0,0.,12.0
1979-08-03 18:25:04.220 ,1,0,0.,12.0,0.,12.0,0.,12.0,0.,12.0
1979-08-03 18:25:16.220 ,1,0,0.,12.0,0.,12.0,0.,12.0,0.,12.0
1979-08-03 18:25:28.220 ,1,0,0.,12.0,0.,12.0,0.,12.0,0.,12.0
1979-08-03 18:25:40.220 ,2,0,0.,12.0,0.,12.0,0.,12.0,0.,12.0
1979-08-03 18:25:52.220 ,2,0,0.,12.0,0.,12.0,0.,12.0,0.,12.0
1979-08-03 18:26:04.220 ,2,0,0.,12.0,0.,12.0,0.,12.0,0.,12.0
1979-08-03 18:26:16.220 ,2,0,0.,12.0,0.,12.0,0.,12.0,0.,12.0
1979-08-03 18:26:28.220 ,3,0,0.,12.0,0.,12.0,0.,12.0,0.,12.0
1979-08-03 18:26:40.220 ,3,0,0.,12.0,0.,12.0,0.,12.0,0.,12.0
1979-08-03 18:26:52.220 ,3,0,0.,12.0,0.,12.0,0.,12.0,0.,12.0
1979-08-03 18:27:04.220 ,3,0,0.,12.0,0.,12.0,0.,12.0,0.,12.0
1979-08-03 18:27:16.220 ,4,0,0.,12.0,0.,12.0,0.,12.0,0.,12.0
1979-08-03 18:27:28.220 ,4,0,0.,12.0,0.,12.0,0.,12.0,0.,12.0
1979-08-03 18:27:40.220 ,4,0,0.,12.0,0.,12.0,0.,12.0,0.,12.0
1979-08-03 18:27:52.220 ,4,0,0.,12.0,0.,12.0,0.,12.0,0.,12.0
1979-08-03 18:28:04.220 ,5,0,0.,12.0,0.,12.0,0.,12.0,0.,12.0
1979-08-03 18:28:16.220 ,5,0,0.,12.0,0.,12.0,0.,12.0,0.,12.0
1979-08-03 18:28:28.220 ,5,0,0.,12.0,0.,12.0,0.,12.0,0.,12.0
1979-08-03 18:28:40.220 ,5,0,0.,12.0,0.,12.0,0.,12.0,0.,12.0
1979-08-03 18:28:52.220 ,6,0,0.,12.0,0.,12.0,0.,12.0,0.,12.0
1979-08-03 18:29:04.220 ,6,0,0.,12.0,0.,12.0,0.,12.0,0.,12.0
1979-08-03 18:29:16.220 ,6,0,0.,12.0,0.,12.0,0.,12.0,0.,12.0
1979-08-03 18:29:28.220 ,6,0,0.,12.0,0.,12.0,0.,12.0,0.,12.0
1979-08-03 18:29:40.220 ,7,0,0.,12.0,0.,12.0,0.,12.0,0.,12.0
1979-08-03 18:29:52.220 ,7,0,0.,12.0,0.,12.0,0.,12.0,0.,12.0
1979-08-03 18:30:04.220 ,7,0,0.,12.0,0.,12.0,0.,12.0,0.,12.0
1979-08-03 18:30:16.220 ,7,0,0.,12.0,0.,12.0,0.,12.0,0.,12.0
1979-08-03 18:30:28.220 ,7,0,0.,12.0,0.,12.0,0.,12.0,0.,12.0
1979-08-03 18:30:40.220 ,7,0,0.,12.0,0.,12.0,0.,12.0,0.,12.0
1979-08-03 18:30:52.220 ,7,0,0.,12.0,0.,12.0,0.,12.0,0.,12.0
1979-08-03 18:31:04.220 ,7,0,0.,12.0,0.,12.0,0.,12.0,0.,12.0
1979-08-03 18:31:16.220 ,6,0,0.,12.0,0.,12.0,0.,12.0,0.,12.0
1979-08-03 18:31:28.220 ,6,0,0.,12.0,0.,12.0,0.,12.0,0.,12.0
1979-08-03 18:31:40.220 ,6,0,0.,12.0,0.,12.0,0.,12.0,0.,12.0
1979-08-03 18:31:52.220 ,6,0,0.,12.0,0.,12.0,0.,12.0,0.,12.0
1979-08-03 18:32:04.220 ,5,0,0.,12.0,0.,12.0,0.,12.0,0.,12.0
1979-08-03 18:32:16.220 ,5,0,0.,12.0,0.,12.0,0.,12.0,0.,12.0
1979-08-03 18:32:28.220 ,5,0,0.,12.0,0.,12.0,0.,12.0,0.,12.0
1979-08-03 18:32:40.220 ,5,0,0.,12.0,0.,12.0,0.,12.0,0.,12.0
1979-08-03 18:32:52.220 ,4,0,0.,12.0,0.,12.0,0.,12.0,0.,12.0
1979-08-03 18:33:04.220 ,4,0,0.,12.0,0.,12.0,0.,12.0,0.,12.0
1979-08-03 18:33:16.220 ,4,0,0.,12.0,0.,12.0,0.,12.0,0.,12.0
1979-08-03 18:33:28.220 ,4,0,0.,12.0,0.,12.0,0.,12.0,0.,12.0
1979-08-03 18:33:40.220 ,3,0,0.,12.0,0.,12.0,0.,12.0,0.,12.0
1979-08-03 18:33:52.220 ,3,0,0.,12.0,0.,12.0,0.,12.0,0.,12.0
1979-08-03 18:34:04.220 ,3,0,0.,12.0,0.,12.0,0.,12.0,0.,12.0
1979-08-03 18:34:16.220 ,3,0,0.,12.0,0.,12.0,0.,12.0,0.,12.0
1979-08-03 18:34:28.220 ,2,0,0.,12.0,0.,12.0,0.,12.0,0.,12.0
1979-08-03 18:34:40.220 ,2,0,0.,12.0,0.,12.0,0.,12.0,0.,12.0
1979-08-03 18:34:52.220 ,2,0,0.,12.0,0.,12.0,0.,12.0,0.,12.0
1979-08-03 18:35:04.220 ,2,0,0.,12.0,0.,12.0,0.,12.0,0.,12.0
1979-08-03 18:35:16.220 ,1,0,0.,12.0,0.,12.0,0.,12.0,0.,12.0
1979-08-03 18:35:28.220 ,1,0,0.,12.0,0.,12.0,0.,12.0,0.,12.0
1979-08-03 18:35:40.220 ,1,0,0.,12.0,0.,12.0,0.,12.0,0.,12.0
1979-08-03 18:35:52.220 ,1,0,0.,12.0,0.,12.0,0.,12.0,0.,12.0
1979-08-03 18:36:04.220 ,0,0,0.,12.0,0.,12.0,0.,12.0,0.,12.0
1979-08-03 18:36:16.220 ,0,0,0.,12.0,0.,12.0,0.,12.0,0.,12.0
1979-08-03 18:36:28.220 ,0,0,0.,12.0,0.,12.0,0.,12.0,0.,12.0
1979-08-03 18:36:40.220 ,0,0,0.,12.0,0.,12.0,0.,12.0,0.,12.0
1979-08-03 18:36:52.220 ,0,0,0.,12.0,0.,12.0,0.,12.0,0.,12.0
1979-08-03 18:37:04.220 ,0,0,0.,12.0,0.,12.0,0.,12.0,0.,12.0
1979-08-03 18:37:16.220 ,0,0,0.,12.0,0.,12.0,0.,12.0,0.,12.0
1979-08-03 18:37:28.220 ,0,0,0.,12.0,0.,12.0,0.,12.0,0.,12.0
1979-08-03 18:37:40.220 ,1,0,0.,12.0,0.,12.0,0.,12.0,0.,12.0
1979-08-03 18:37:52.220 ,1,0,0.,12.0,0.,12.0,0.,12.0,0.,12.0
1979-08-03 18:38:04.220 ,1,0,0.,12.0,0.,12.0,0.,12.0,0.,12.0
1979-08-03 18:38:16.220 ,1,0,0.,12.0,0.,12.0,0.,12.0,0.,12.0
1979-08-03 18:38:28.220 ,2,0,0.,12.0,0.,12.0,0.,12.0,0.,12.0
1979-08-03 18:38:40.220 ,2,0,0.,12.0,0.,12.0,0.,12.0,0.,12.0
1979-08-03 18:38:52.220 ,2,0,0.,12.0,0.,12.0,0.,12.0,0.,12.0
1979-08-03 18:39:04.220 ,2,0,0.,12.0,0.,12.0,0.,12.0,0.,12.0
1979-08-03 18:39:16.220 ,3,0,0.,12.0,0.,12.0,0.,12.0,0.,12.0
1979-08-03 18:39:28.220 ,3,0,0.,12.0,0.,12.0,0.,12.0,0.,12.0
1979-08-03 18:39:40.220 ,3,0,0.,12.0,0.,12.0,0.,12.0,0.,12.0
1979-08-03 18:39:52.220 ,3,0,0.,12.0,0.,12.0,0.,12.0,0.,12.0
1979-08-03 18:40:04.220 ,4,0,0.,12.0,0.,12.0,0.,12.0,0.,12.0
1979-08-03 18:40:16.220 ,4,0,0.,12.0,0.,12.0,0.,12.0,0.,12.0
1979-08-03 18:40:28.220 ,4,0,0.,12.0,0.,12.0,0.,12.0,0.,12.0
1979-08-03 18:40:40.220 ,4,0,0.,12.0,0.,12.0,0.,12.0,0.,12.0
1979-08-03 18:40:52.220 ,5,0,0.,12.0,0.,12.0,0.,12.0,0.,12.0
1979-08-03 18:41:04.220 ,5,0,0.,12.0,0.,12.0,0.,12.0,0.,12.0
1979-08-03 18:41:16.220 ,5,0,0.,12.0,0.,12.0,0.,12.0,0.,12.0
1979-08-03 18:41:28.220 ,5,0,0.,12.0,0.,12.0,0.,12.0,0.,12.0
1979-08-03 18:41:40.220 ,6,0,0.,12.0,0.,12.0,0.,12.0,0.,12.0
1979-08-03 18:41:52.220 ,6,0,0.,12.0,0.,12.0,0.,12.0,0.,12.0
1979-08-03 18:42:04.220 ,6,0,0.,12.0,0.,12.0,0.,12.0,0.,12.0
1979-08-03 18:42:16.220 ,6,0,0.,12.0,0.,12.0,0.,12.0,0.,12.0
1979-08-03 18:42:28.220 ,7,0,0.,12.0,0.,12.0,0.,12.0,0.,12.0
1979-08-03 18:42:40.220 ,7,0,0.,12.0,0.,12.0,0.,12.0,0.,12.0
1979-08-03 18:42:52.220 ,7,0,0.,12.0,0.,12.0,0.,12.0,0.,12.0
1979-08-03 18:43:04.220 ,7,0,0.,12.0,0.,12.0,0.,12.0,0.,12.0
1979-08-03 18:43:16.220 ,3,1,0.,12.0,0.,12.0,0.,12.0,0.,12.0
1979-08-03 18:43:28.220 ,3,1,0.,12.0,0.,12.0,0.,12.0,0.,12.0
1979-08-03 18:43:40.220 ,0,1,0.,12.0,0.,12.0,0.,12.0,0.,12.0
1979-08-03 18:43:52.220 ,0,1,0.,12.0,0.,12.0,0.,12.0,0.,12.0
1979-08-03 18:44:04.220 ,4,1,0.,12.0,0.,12.0,0.,12.0,0.,12.0
1979-08-03 18:44:16.220 ,4,1,0.,12.0,0.,12.0,0.,12.0,0.,12.0
1979-08-03 18:44:28.220 ,7,1,0.,12.0,0.,12.0,0.,12.0,0.,12.0
1979-08-03 18:44:40.220 ,7,1,0.,12.0,0.,12.0,0.,12.0,0.,12.0
1979-08-03 18:44:52.220 ,3,1,0.,12.0,0.,12.0,0.,12.0,0.,12.0
1979-08-03 18:45:04.220 ,3,1,0.,12.0,0.,12.0,0.,12.0,0.,12.0
1979-08-03 18:45:16.220 ,0,1,0.,12.0,0.,12.0,0.,12.0,0.,12.0
1979-08-03 18:45:28.220 ,0,1,0.,12.0,0.,12.0,0.,12.0,0.,12.0
1979-08-03 18:45:40.220 ,4,1,0.,12.0,0.,12.0,0.,12.0,0.,12.0
1979-08-03 18:45:52.220 ,4,1,0.,12.0,0.,12.0,0.,12.0,0.,12.0
1979-08-03 18:46:04.220 ,7,1,0.,12.0,0.,12.0,0.,12.0,0.,12.0
1979-08-03 18:46:16.220 ,7,1,0.,12.0,0.,12.0,0.,12.0,0.,12.0
1979-08-03 18:46:28.220 ,3,1,0.,12.0,0.,12.0,0.,12.0,0.,12.0
1979-08-03 18:46:40.220 ,3,1,0.,12.0,0.,12.0,0.,12.0,0.,12.0
1979-08-03 18:46:52.220 ,0,1,0.,12.0,0.,12.0,0.,12.0,0.,12.0
1979-08-03 18:47:04.220 ,0,1,0.,12.0,0.,12.0,0.,12.0,0.,12.0
1979-08-03 18:47:16.220 ,4,1,0.,12.0,0.,12.0,0.,12.0,0.,12.0
1979-08-03 18:47:28.220 ,4,1,0.,12.0,0.,12.0,0.,12.0,0.,12.0
1979-08-03 18:47:40.220 ,7,1,0.,12.0,0.,12.0,0.,12.0,0.,12.0
1979-08-03 18:47:52.220 ,7,1,0.,12.0,0.,12.0,0.,12.0,0.,12.0
1979-08-03 18:48:04.220 ,3,1,0.,12.0,0.,12.0,0.,12.0,0.,12.0
1979-08-03 18:48:16.220 ,3,1,0.,12.0,0.,12.0,0.,12.0,0.,12.0
1979-08-03 18:48:28.220 ,0,1,0.,12.0,0.,12.0,0.,12.0,0.,12.0
1979-08-03 18:48:40.220 ,0,1,0.,12.0,0.,12.0,0.,12.0,0.,12.0
1979-08-03 18:48:52.220 ,4,1,0.,12.0,0.,12.0,0.,12.0,0.,12.0
1979-08-03 18:49:04.220 ,4,1,0.,12.0,0.,12.0,0.,12.0,0.,12.0
1979-08-03 18:49:16.220 ,7,1,0.,12.0,0.,12.0,0.,12.0,0.,12.0
1979-08-03 18:49:28.220 ,7,1,0.,12.0,0.,12.0,0.,12.0,0.,12.0
1979-08-03 18:49:40.220 ,3,1,0.,12.0,0.,12.0,0.,12.0,0.,12.0
1979-08-03 18:49:52.220 ,3,1,0.,12.0,0.,12.0,0.,12.0,0.,12.0
1979-08-03 18:50:04.220 ,0,1,0.,12.0,0.,12.0,0.,12.0,0.,12.0
1979-08-03 18:50:16.220 ,0,1,0.,12.0,0.,12.0,0.,12.0,0.,12.0
1979-08-03 18:50:28.220 ,4,1,0.,12.0,0.,12.0,0.,12.0,0.,12.0
1979-08-03 18:50:40.220 ,4,1,0.,12.0,0.,12.0,0.,12.0,0.,12.0
1979-08-03 18:50:52.220 ,7,1,0.,12.0,0.,12.0,0.,12.0,0.,12.0
1979-08-03 18:51:04.220 ,7,1,0.,12.0,0.,12.0,0.,12.0,0.,12.0
1979-08-03 18:51:16.220 ,3,1,0.,12.0,0.,12.0,0.,12.0,0.,12.0
1979-08-03 18:51:28.220 ,3,1,0.,12.0,0.,12.0,0.,12.0,0.,12.0
1979-08-03 18:51:40.220 ,0,1,0.,12.0,0.,12.0,0.,12.0,0.,12.0
1979-08-03 18:51:52.220 ,0,1,0.,12.0,0.,12.0,0.,12.0,0.,12.0
1979-08-03 18:52:04.220 ,4,1,0.,12.0,0.,12.0,0.,12.0,0.,12.0
1979-08-03 18:52:16.220 ,4,1,0.,12.0,0.,12.0,0.,12.0,0.,12.0
1979-08-03 18:52:28.220 ,7,1,0.,12.0,0.,12.0,0.,12.0,0.,12.0
1979-08-03 18:52:40.220 ,7,1,0.,12.0,0.,12.0,0.,12.0,0.,12.0
1979-08-03 18:52:52.220 ,3,1,0.,12.0,0.,12.0,0.,12.0,0.,12.0
1979-08-03 18:53:04.220 ,3,1,0.,12.0,0.,12.0,0.,12.0,0.,12.0
1979-08-03 18:53:16.220 ,0,1,0.,12.0,0.,12.0,0.,12.0,0.,12.0
1979-08-03 18:53:28.220 ,0,1,0.,12.0,0.,12.0,0.,12.0,0.,12.0
1979-08-03 18:53:40.220 ,0,0,0.,12.0,0.,12.0,0.,12.0,0.,12.0
1979-08-03 18:53:52.220 ,0,0,0.,12.0,0.,12.0,0.,12.0,0.,12.0
1979-08-03 18:54:04.220 ,0,0,0.,12.0,0.,12.0,0.,12.0,0.,12.0
1979-08-03 18:54:16.220 ,0,0,0.,12.0,0.,12.0,0.,12.0,0.,12.0
1979-08-03 18:54:28.220 ,5,0,0.,12.0,0.,12.0,0.,12.0,0.,12.0
1979-08-03 18:54:40.220 ,5,0,0.,12.0,0.,12.0,0.,12.0,0.,12.0
1979-08-03 18:54:52.220 ,5,0,0.,12.0,0.,12.0,0.,12.0,0.,12.0
1979-08-03 18:55:04.220 ,5,0,0.,12.0,0.,12.0,0.,12.0,0.,12.0
1979-08-03 18:55:16.220 ,4,0,0.,12.0,0.,12.0,0.,12.0,0.,12.0
1979-08-03 18:55:28.220 ,4,0,0.,12.0,0.,12.0,0.,12.0,0.,12.0
1979-08-03 18:55:40.220 ,4,0,0.,12.0,0.,12.0,0.,12.0,0.,12.0
1979-08-03 18:55:52.220 ,4,0,0.,12.0,0.,12.0,0.,12.0,0.,12.0
1979-08-03 18:56:04.220 ,3,0,0.,12.0,0.,12.0,0.,12.0,0.,12.0
1979-08-03 18:56:16.220 ,3,0,0.,12.0,0.,12.0,0.,12.0,0.,12.0
1979-08-03 18:56:28.220 ,3,0,0.,12.0,0.,12.0,0.,12.0,0.,12.0
1979-08-03 18:56:40.220 ,3,0,0.,12.0,0.,12.0,0.,12.0,0.,12.0
1979-08-03 18:56:52.220 ,2,0,0.,12.0,0.,12.0,0.,12.0,0.,12.0
1979-08-03 18:57:04.220 ,2,0,0.,12.0,0.,12.0,0.,12.0,0.,12.0
1979-08-03 18:57:16.220 ,2,0,0.,12.0,0.,12.0,0.,12.0,0.,12.0
1979-08-03 18:57:28.220 ,2,0,0.,12.0,0.,12.0,0.,12.0,0.,12.0
1979-08-03 18:57:40.220 ,1,0,0.,12.0,0.,12.0,0.,12.0,0.,12.0
1979-08-03 18:57:52.220 ,1,0,0.,12.0,0.,12.0,0.,12.0,0.,12.0
1979-08-03 18:58:04.220 ,1,0,0.,12.0,0.,12.0,0.,12.0,0.,12.0
1979-08-03 18:58:16.220 ,1,0,0.,12.0,0.,12.0,0.,12.0,0.,12.0
1979-08-03 18:58:28.220 ,0,0,0.,12.0,0.,12.0,0.,12.0,0.,12.0
1979-08-03 18:58:40.220 ,0,0,0.,12.0,0.,12.0,0.,12.0,0.,12.0
1979-08-03 18:58:52.220 ,0,0,0.,12.0,0.,12.0,0.,12.0,0.,12.0
1979-08-03 18:59:04.220 ,0,0,0.,12.0,0.,12.0,0.,12.0,0.,12.0
1979-08-03 18:59:16.220 ,0,0,0.,12.0,0.,12.0,0.,12.0,0.,12.0
1979-08-03 18:59:28.220 ,0,0,0.,12.0,0.,12.0,0.,12.0,0.,12.0
1979-08-03 18:59:40.220 ,0,0,0.,12.0,0.,12.0,0.,12.0,0.,12.0
1979-08-03 18:59:52.220 ,0,0,0.,12.0,0.,12.0,0.,12.0,0.,12.0
1979-08-03 19:00:04.220 ,1,0,0.,12.0,0.,12.0,0.,12.0,0.,12.0
1979-08-03 19:00:16.220 ,1,0,0.,12.0,0.,12.0,0.,12.0,0.,12.0
1979-08-03 19:00:28.220 ,1,0,0.,12.0,0.,12.0,0.,12.0,0.,12.0
1979-08-03 19:00:40.220 ,1,0,0.,12.0,0.,12.0,0.,12.0,0.,12.0
1979-08-03 19:00:52.220 ,2,0,0.,12.0,0.,12.0,0.,12.0,0.,12.0
1979-08-03 19:01:04.220 ,2,0,0.,12.0,0.,12.0,0.,12.0,0.,12.0
1979-08-03 19:01:16.220 ,2,0,0.,12.0,0.,12.0,0.,12.0,0.,12.0
1979-08-03 19:01:28.220 ,2,0,0.,12.0,0.,12.0,0.,12.0,0.,12.0
1979-08-03 19:01:40.220 ,3,0,0.,12.0,0.,12.0,0.,12.0,0.,12.0
1979-08-03 19:01:52.220 ,3,0,0.,12.0,0.,12.0,0.,12.0,0.,12.0
1979-08-03 19:02:04.220 ,3,0,0.,12.0,0.,12.0,0.,12.0,0.,12.0
1979-08-03 19:02:16.220 ,3,0,0.,12.0,0.,12.0,0.,12.0,0.,12.0
1979-08-03 19:02:28.220 ,4,0,0.,12.0,0.,12.0,0.,12.0,0.,12.0
1979-08-03 19:02:40.220 ,4,0,0.,12.0,0.,12.0,0.,12.0,0.,12.0
1979-08-03 19:02:52.220 ,4,0,0.,12.0,0.,12.0,0.,12.0,0.,12.0
1979-08-03 19:03:04.220 ,4,0,0.,12.0,0.,12.0,0.,12.0,0.,12.0
1979-08-03 19:03:16.220 ,5,0,0.,12.0,0.,12.0,0.,12.0,0.,12.0
1979-08-03 19:03:28.220 ,5,0,0.,12.0,0.,12.0,0.,12.0,0.,12.0
1979-08-03 19:03:40.220 ,5,0,0.,12.0,0.,12.0,0.,12.0,0.,12.0
1979-08-03 19:03:52.220 ,5,0,0.,12.0,0.,12.0,0.,12.0,0.,12.0
1979-08-03 19:04:04.220 ,6,0,0.,12.0,0.,12.0,0.,12.0,0.,12.0
1979-08-03 19:04:16.220 ,6,0,0.,12.0,0.,12.0,0.,12.0,0.,12.0
1979-08-03 19:04:28.220 ,6,0,0.,12.0,0.,12.0,0.,12.0,0.,12.0
1979-08-03 19:04:40.220 ,6,0,0.,12.0,0.,12.0,0.,12.0,0.,12.0
1979-08-03 19:04:52.220 ,7,0,0.,12.0,0.,12.0,0.,12.0,0.,12.0
1979-08-03 19:05:04.220 ,7,0,0.,12.0,0.,12.0,0.,12.0,0.,12.0
1979-08-03 19:05:16.220 ,7,0,0.,12.0,0.,12.0,0.,12.0,0.,12.0
1979-08-03 19:05:28.220 ,7,0,0.,12.0,0.,12.0,0.,12.0,0.,12.0
1979-08-03 19:05:40.220 ,7,0,0.,12.0,0.,12.0,0.,12.0,0.,12.0
1979-08-03 19:05:52.220 ,7,0,0.,12.0,0.,12.0,0.,12.0,0.,12.0
1979-08-03 19:06:04.220 ,7,0,0.,12.0,0.,12.0,0.,12.0,0.,12.0
1979-08-03 19:06:16.220 ,7,0,0.,12.0,0.,12.0,0.,12.0,0.,12.0
1979-08-03 19:06:28.220 ,6,0,0.,12.0,0.,12.0,0.,12.0,0.,12.0
1979-08-03 19:06:40.220 ,6,0,0.,12.0,0.,12.0,0.,12.0,0.,12.0
1979-08-03 19:06:52.220 ,6,0,0.,12.0,0.,12.0,0.,12.0,0.,12.0
1979-08-03 19:07:04.220 ,6,0,0.,12.0,0.,12.0,0.,12.0,0.,12.0
1979-08-03 19:07:16.220 ,5,0,0.,12.0,0.,12.0,0.,12.0,0.,12.0
1979-08-03 19:07:28.220 ,5,0,0.,12.0,0.,12.0,0.,12.0,0.,12.0
1979-08-03 19:07:40.220 ,5,0,0.,12.0,0.,12.0,0.,12.0,0.,12.0
1979-08-03 19:07:52.220 ,5,0,0.,12.0,0.,12.0,0.,12.0,0.,12.0
1979-08-03 19:08:04.220 ,4,0,0.,12.0,0.,12.0,0.,12.0,0.,12.0
1979-08-03 19:08:16.220 ,4,0,0.,12.0,0.,12.0,0.,12.0,0.,12.0
1979-08-03 19:08:28.220 ,4,0,0.,12.0,0.,12.0,0.,12.0,0.,12.0
1979-08-03 19:08:40.220 ,4,0,0.,12.0,0.,12.0,0.,12.0,0.,12.0
1979-08-03 19:08:52.220 ,3,0,0.,12.0,0.,12.0,0.,12.0,0.,12.0
1979-08-03 19:09:04.220 ,3,0,0.,12.0,0.,12.0,0.,12.0,0.,12.0
1979-08-03 19:09:16.220 ,3,0,0.,12.0,0.,12.0,0.,12.0,0.,12.0
1979-08-03 19:09:28.220 ,3,0,0.,12.0,0.,12.0,0.,12.0,0.,12.0
1979-08-03 19:09:40.220 ,2,0,0.,12.0,0.,12.0,0.,12.0,0.,12.0
1979-08-03 19:09:52.220 ,2,0,0.,12.0,0.,12.0,0.,12.0,0.,12.0
1979-08-03 19:10:04.220 ,2,0,0.,12.0,0.,12.0,0.,12.0,0.,12.0
1979-08-03 19:10:16.220 ,2,0,0.,12.0,0.,12.0,0.,12.0,0.,12.0
1979-08-03 19:10:28.220 ,1,0,0.,12.0,0.,12.0,0.,12.0,0.,12.0
1979-08-03 19:10:40.220 ,1,0,0.,12.0,0.,12.0,0.,12.0,0.,12.0
1979-08-03 19:10:52.220 ,1,0,0.,12.0,0.,12.0,0.,12.0,0.,12.0
1979-08-03 19:11:04.220 ,1,0,0.,12.0,0.,12.0,0.,12.0,0.,12.0
1979-08-03 19:11:16.220 ,0,0,0.,12.0,0.,12.0,0.,12.0,0.,12.0
1979-08-03 19:11:28.220 ,0,0,0.,12.0,0.,12.0,0.,12.0,0.,12.0
1979-08-03 19:11:40.220 ,0,0,0.,12.0,0.,12.0,0.,12.0,0.,12.0
1979-08-03 19:11:52.220 ,0,0,0.,12.0,0.,12.0,0.,12.0,0.,12.0
1979-08-03 19:12:04.220 ,0,0,0.,12.0,0.,12.0,0.,12.0,0.,12.0
1979-08-03 19:12:16.220 ,0,0,0.,12.0,0.,12.0,0.,12.0,0.,12.0
1979-08-03 19:12:28.220 ,0,0,0.,12.0,0.,12.0,0.,12.0,0.,12.0
1979-08-03 19:12:40.220 ,0,0,0.,12.0,0.,12.0,0.,12.0,0.,12.0
1979-08-03 19:12:52.220 ,1,0,0.,12.0,0.,12.0,0.,12.0,0.,12.0
1979-08-03 19:13:04.220 ,1,0,0.,12.0,0.,12.0,0.,12.0,0.,12.0
1979-08-03 19:13:16.220 ,1,0,0.,12.0,0.,12.0,0.,12.0,0.,12.0
1979-08-03 19:13:28.220 ,1,0,0.,12.0,0.,12.0,0.,12.0,0.,12.0
1979-08-03 19:13:40.220 ,2,0,0.,12.0,0.,12.0,0.,12.0,0.,12.0
1979-08-03 19:13:52.220 ,2,0,0.,12.0,0.,12.0,0.,12.0,0.,12.0
1979-08-03 19:14:04.220 ,2,0,0.,12.0,0.,12.0,0.,12.0,0.,12.0
1979-08-03 19:14:16.220 ,2,0,0.,12.0,0.,12.0,0.,12.0,0.,12.0
1979-08-03 19:14:28.220 ,3,0,0.,12.0,0.,12.0,0.,12.0,0.,12.0
1979-08-03 19:14:40.220 ,3,0,0.,12.0,0.,12.0,0.,12.0,0.,12.0
1979-08-03 19:14:52.220 ,3,0,0.,12.0,0.,12.0,0.,12.0,0.,12.0
1979-08-03 19:15:04.220 ,3,0,0.,12.0,0.,12.0,0.,12.0,0.,12.0
1979-08-03 19:15:16.220 ,4,0,0.,12.0,0.,12.0,0.,12.0,0.,12.0
1979-08-03 19:15:28.220 ,4,0,0.,12.0,0.,12.0,0.,12.0,0.,12.0
1979-08-03 19:15:40.220 ,4,0,0.,12.0,0.,12.0,0.,12.0,0.,12.0
1979-08-03 19:15:52.220 ,4,0,0.,12.0,0.,12.0,0.,12.0,0.,12.0
1979-08-03 19:16:04.220 ,5,0,0.,12.0,0.,12.0,0.,12.0,0.,12.0
1979-08-03 19:16:16.220 ,5,0,0.,12.0,0.,12.0,0.,12.0,0.,12.0
1979-08-03 19:16:28.220 ,5,0,0.,12.0,0.,12.0,0.,12.0,0.,12.0
1979-08-03 19:16:40.220 ,5,0,0.,12.0,0.,12.0,0.,12.0,0.,12.0
1979-08-03 19:16:52.220 ,6,0,0.,12.0,0.,12.0,0.,12.0,0.,12.0
1979-08-03 19:17:04.220 ,6,0,0.,12.0,0.,12.0,0.,12.0,0.,12.0
1979-08-03 19:17:16.220 ,6,0,0.,12.0,0.,12.0,0.,12.0,0.,12.0
1979-08-03 19:17:28.220 ,6,0,0.,12.0,0.,12.0,0.,12.0,0.,12.0